TimeCST,TemperatureF,Dew PointF,Humidity,Sea Level PressureIn,VisibilityMPH,Wind Direction,Wind SpeedMPH,Gust SpeedMPH,PrecipitationIn,Events,Conditions,WindDirDegrees,DateUTC
12:15 AM,33.8,28.4,81,29.84,5.0,WNW,9.2,-,N/A,,Overcast,300,2013-02-27 06:15:00
12:35 AM,33.8,28.4,81,29.84,5.0,WNW,11.5,-,N/A,,Overcast,300,2013-02-27 06:35:00
12:55 AM,33.8,28.4,81,29.85,5.0,WNW,8.1,-,N/A,,Overcast,290,2013-02-27 06:55:00
1:15 AM,33.8,28.4,81,29.85,5.0,WNW,9.2,-,N/A,,Overcast,300,2013-02-27 07:15:00
1:35 AM,33.8,28.4,81,29.85,6.0,NW,9.2,-,N/A,,Overcast,310,2013-02-27 07:35:00
1:55 AM,33.8,26.6,75,29.85,9.0,NW,10.4,-,N/A,,Overcast,310,2013-02-27 07:55:00
2:15 AM,33.8,28.4,81,29.85,8.0,NW,4.6,-,N/A,,Overcast,310,2013-02-27 08:15:00
2:35 AM,33.8,28.4,81,29.85,7.0,WNW,6.9,-,N/A,,Overcast,300,2013-02-27 08:35:00
2:55 AM,33.8,28.4,81,29.85,7.0,NW,8.1,-,N/A,,Overcast,310,2013-02-27 08:55:00
3:15 AM,33.8,28.4,81,29.86,7.0,WNW,10.4,-,N/A,,Overcast,300,2013-02-27 09:15:00
3:35 AM,33.8,26.6,75,29.87,8.0,NW,12.7,-,N/A,,Overcast,310,2013-02-27 09:35:00
3:55 AM,33.8,28.4,81,29.87,8.0,WNW,9.2,16.1,N/A,,Overcast,300,2013-02-27 09:55:00
4:15 AM,33.8,26.6,75,29.87,10.0,NW,10.4,-,N/A,,Overcast,320,2013-02-27 10:15:00
4:35 AM,33.8,26.6,75,29.87,9.0,NW,11.5,-,N/A,,Overcast,310,2013-02-27 10:35:00
4:55 AM,33.8,26.6,75,29.88,7.0,WNW,10.4,-,N/A,,Overcast,300,2013-02-27 10:55:00
5:15 AM,33.8,28.4,81,29.89,8.0,West,6.9,-,N/A,,Overcast,280,2013-02-27 11:15:00
5:35 AM,33.8,26.6,75,29.88,8.0,WNW,8.1,-,N/A,,Overcast,290,2013-02-27 11:35:00
5:55 AM,33.8,26.6,75,29.89,8.0,WNW,8.1,-,N/A,,Overcast,290,2013-02-27 11:55:00
6:15 AM,33.8,28.4,81,29.89,7.0,WNW,6.9,-,N/A,,Overcast,290,2013-02-27 12:15:00
6:55 AM,33.8,28.4,81,29.90,5.0,WNW,6.9,-,N/A,,Overcast,290,2013-02-27 12:55:00
7:15 AM,33.8,28.4,81,29.90,4.0,WNW,9.2,-,N/A,,Overcast,290,2013-02-27 13:15:00
7:35 AM,33.8,28.4,81,29.90,4.0,WNW,8.1,-,N/A,,Overcast,290,2013-02-27 13:35:00
7:55 AM,33.8,28.4,81,29.91,4.0,WNW,12.7,16.1,N/A,,Overcast,300,2013-02-27 13:55:00
8:15 AM,33.8,28.4,81,29.92,4.0,WNW,13.8,18.4,N/A,,Overcast,290,2013-02-27 14:15:00
8:35 AM,33.8,28.4,81,29.94,4.0,WNW,10.4,17.3,N/A,,Overcast,290,2013-02-27 14:35:00
8:55 AM,33.8,28.4,81,29.94,4.0,WNW,15.0,19.6,N/A,,Overcast,290,2013-02-27 14:55:00
9:15 AM,33.8,28.4,81,29.95,4.0,WNW,16.1,-,N/A,,Overcast,290,2013-02-27 15:15:00
9:35 AM,33.8,28.4,81,29.96,4.0,WNW,11.5,17.3,N/A,,Overcast,290,2013-02-27 15:35:00
9:55 AM,33.8,28.4,81,29.96,4.0,WNW,11.5,18.4,N/A,,Overcast,290,2013-02-27 15:55:00
10:15 AM,33.8,28.4,81,29.96,5.0,WNW,16.1,20.7,N/A,,Overcast,290,2013-02-27 16:15:00
10:55 AM,33.8,28.4,81,29.97,4.0,WNW,12.7,-,N/A,,Overcast,300,2013-02-27 16:55:00
11:15 AM,33.8,28.4,81,29.97,4.0,WNW,12.7,-,N/A,,Overcast,290,2013-02-27 17:15:00
11:35 AM,35.6,28.4,75,29.97,5.0,WNW,12.7,17.3,N/A,,Overcast,290,2013-02-27 17:35:00
11:55 AM,35.6,28.4,75,29.97,6.0,WNW,12.7,-,N/A,,Overcast,290,2013-02-27 17:55:00
12:15 PM,35.6,28.4,75,29.97,7.0,WNW,15.0,-,N/A,,Overcast,290,2013-02-27 18:15:00
12:35 PM,37.4,28.4,70,29.97,9.0,WNW,11.5,19.6,N/A,,Overcast,300,2013-02-27 18:35:00
12:55 PM,37.4,28.4,70,29.97,9.0,WNW,16.1,-,N/A,,Overcast,300,2013-02-27 18:55:00
1:15 PM,37.4,28.4,70,29.96,10.0,West,11.5,-,N/A,,Overcast,280,2013-02-27 19:15:00
1:35 PM,37.4,28.4,70,29.96,10.0,WNW,17.3,20.7,N/A,,Overcast,290,2013-02-27 19:35:00
1:55 PM,37.4,28.4,70,29.97,10.0,WNW,13.8,-,N/A,,Overcast,300,2013-02-27 19:55:00
2:35 PM,37.4,28.4,70,29.97,10.0,WNW,19.6,23.0,N/A,,Overcast,290,2013-02-27 20:35:00
2:55 PM,37.4,28.4,70,29.97,10.0,WNW,16.1,24.2,N/A,,Overcast,290,2013-02-27 20:55:00
3:15 PM,39.2,28.4,65,29.97,10.0,WNW,19.6,26.5,N/A,,Mostly Cloudy,290,2013-02-27 21:15:00
3:35 PM,39.2,28.4,65,29.97,10.0,NW,15.0,20.7,N/A,,Overcast,310,2013-02-27 21:35:00
3:55 PM,39.2,28.4,65,29.98,10.0,West,19.6,24.2,N/A,,Overcast,280,2013-02-27 21:55:00
4:15 PM,39.2,28.4,65,29.98,10.0,NW,18.4,-,N/A,,Overcast,310,2013-02-27 22:15:00
4:35 PM,37.4,26.6,65,29.99,10.0,WNW,13.8,20.7,N/A,,Overcast,300,2013-02-27 22:35:00
4:55 PM,37.4,28.4,70,30.00,10.0,WNW,16.1,20.7,N/A,,Mostly Cloudy,290,2013-02-27 22:55:00
5:15 PM,35.6,26.6,70,30.01,10.0,NW,15.0,-,N/A,,Mostly Cloudy,310,2013-02-27 23:15:00
5:35 PM,35.6,24.8,65,30.02,10.0,WNW,15.0,23.0,N/A,,Partly Cloudy,300,2013-02-27 23:35:00
5:55 PM,35.6,24.8,65,30.02,10.0,WNW,13.8,-,N/A,,Partly Cloudy,300,2013-02-27 23:55:00
6:15 PM,33.8,24.8,70,30.02,10.0,WNW,9.2,-,N/A,,Mostly Cloudy,300,2013-02-28 00:15:00
6:35 PM,33.8,24.8,70,30.03,10.0,WNW,10.4,-,N/A,,Overcast,290,2013-02-28 00:35:00
6:55 PM,33.8,26.6,75,30.03,10.0,WNW,10.4,-,N/A,,Mostly Cloudy,290,2013-02-28 00:55:00
7:15 PM,33.8,26.6,75,30.03,10.0,WNW,10.4,-,N/A,,Scattered Clouds,300,2013-02-28 01:15:00
7:35 PM,33.8,24.8,70,30.04,10.0,WNW,10.4,-,N/A,,Clear,300,2013-02-28 01:35:00
8:15 PM,33.8,24.8,70,30.04,10.0,WNW,10.4,-,N/A,,Clear,290,2013-02-28 02:15:00
8:35 PM,33.8,24.8,70,30.05,10.0,WNW,9.2,-,N/A,,Clear,300,2013-02-28 02:35:00
8:55 PM,33.8,24.8,70,30.05,10.0,WNW,10.4,-,N/A,,Clear,290,2013-02-28 02:55:00
9:15 PM,33.8,24.8,70,30.05,10.0,WNW,9.2,16.1,N/A,,Clear,290,2013-02-28 03:15:00
9:35 PM,33.8,24.8,70,30.05,10.0,West,11.5,-,N/A,,Clear,280,2013-02-28 03:35:00
9:55 PM,33.8,24.8,70,30.05,10.0,West,9.2,-,N/A,,Clear,280,2013-02-28 03:55:00
10:35 PM,32.0,24.8,75,30.05,10.0,WNW,9.2,-,N/A,,Clear,300,2013-02-28 04:35:00
10:55 PM,33.8,24.8,70,30.05,10.0,NW,10.4,-,N/A,,Clear,310,2013-02-28 04:55:00
11:15 PM,33.8,24.8,70,30.05,10.0,NW,10.4,-,N/A,,Clear,310,2013-02-28 05:15:00
11:35 PM,33.8,24.8,70,30.04,10.0,NW,11.5,17.3,N/A,,Clear,310,2013-02-28 05:35:00
11:55 PM,32.0,24.8,75,30.04,10.0,NW,9.2,-,N/A,,Clear,310,2013-02-28 05:55:00